Regional Weather Roundup
Issued by NWS Goodland, KS

Home | Current Version | Previous Version | Graphics & Text | Print | Product List | Glossary On
Versions: 1 2 3 4 5 6 7 8 9 10 11 12 13 14 15 16 17 18 19 20 21 22 23 24 25 26 27 28 29 30 31 32 33 34 35 36 37 38 39 40 41 42 43 44 45 46 47 48 49 50
000
ASUS43 KGLD 070508
RWRGLD

GOODLAND FORECAST AREA HOURLY WEATHER ROUNDUP
NATIONAL WEATHER SERVICE GOODLAND KS
1100 PM MDT MON JUL 06 2015

...OFFICIAL OBSERVATIONS...

CITY           SKY/WX    TMP DP  RH WIND       PRES   REMARKS
GOODLAND KS    CLOUDY    63  55  75 NE7       30.22R HAZE
HILL CITY KS   CLOUDY    66  55  67 N8        30.14R HAZE
IMPERIAL NEB   CLOUDY    62  53  72 NE5       30.22S
MCCOOK NEB     CLEAR     60  55  83 N8        30.18R HAZE
AKRON CO       CLOUDY    63  52  67 E8        30.28R HAZE
BURLINGTON CO  CLOUDY    62  52  69 NE8       30.25R HAZE
LIMON CO       CLOUDY    60  52  74 E7        30.31R HAZE
$$

...UNOFFICIAL OBSERVATIONS...

CITY           SKY/WX    TMP DP  RH WIND       PRES   REMARKS
COLBY KS       CLEAR     66  55  68 N10       30.20S
GOVE KS          N/A     66  32  28 MISG        N/A
NORTON KS      CLEAR     63  50  63 N10       30.14F
SHARON SPRINGS   N/A     66  53  64 NE10        N/A
KIT CARSON CO    N/A     63  54  72 MISG        N/A
YUMA CO          N/A     64  53  68 E6          N/A
$$


USA.gov is the U.S. government's official web portal to all federal, state and local government web resources and services.